Content
SEND FEEDBACK

Daily
Averages
Monthly
Summary
Canada

DELTA, BRITISH COLUMBIA


Home > North America > Canada > British Columbia
Elevation: 30 feet     Latitude: 49 10N     Longitude: 123 10W

WEATHER
 
SELECT A DAY
Number of Records: 249,253;   Date Range: 5/15/97 - 7/23/14
 
SHARE

PRINT THIS DATA

[ ← Previous Day ]
WEATHER ALMANAC - MARCH 20, 2013
[ Next Day → ]
[ °C ]   °F
Weather ElementAverageHighLow
Temperature47.3 °F53.6 °F (12:15 pm)39.2 °F (10:55 pm)
Dewpoint39 °F48.2 °F (7:35 am)28.4 °F (9:15 pm)
Humidity73.6 %94 % (7:35 am)57 % (6:15 pm)
Barometer29.52 in29.93 in (11:55 pm)29.27 in (7:15 am)
Wind Speed12.5 mph23 mph (3:15 pm)
Wind Gust35.7 mph (2:35 pm)
Weather ElementAverage
Visibility9.5 mi
Wind DirectionSSW (199 °)

Weather ElementTotal
Precipitation0.03 in
Heating Degree Days18.6 (Base 65)
Averaged from 70 records on March 20, 2013
WEATHER CONDITIONS BREAKOUT
WIND DIRECTION BREAKOUT
WEATHER BY HOUR - MARCH 20, 2013
[ °C ]   °F
Local TimeTemperatureDewpointHumidityBarometerVisibilityWind DirectionWind SpeedGust SpeedPrecipitationEventsConditions
12:35 AM48.2 °F39.2 °F71 %29.49 in10.0 miSSE (160°)6.9 mphPartly Cloudy
12:55 AM48.2 °F39.2 °F71 %29.48 in10.0 miSouth (170°)6.9 mph17.3 mphScattered Clouds
1:15 AM48.2 °F41.0 °F76 %29.47 in10.0 miSouth (180°)8.1 mph19.6 mphRainLight Rain
1:35 AM48.2 °F41.0 °F76 %29.46 in9.0 miSouth (170°)10.4 mph16.1 mphRainLight Rain
1:55 AM48.2 °F41.0 °F76 %29.44 in10.0 miSouth (170°)8.1 mphRainLight Rain
2:15 AM48.2 °F42.8 °F82 %29.43 in9.0 miSSE (160°)10.4 mph18.4 mphRainLight Rain
2:35 AM46.4 °F42.8 °F87 %29.42 in10.0 miSouth (180°)12.7 mph19.6 mphPartly Cloudy
2:55 AM48.2 °F44.6 °F87 %29.41 in10.0 miSouth (170°)9.2 mph23.0 mphRainLight Rain
3:15 AM48.2 °F42.8 °F82 %29.40 in10.0 miSouth (170°)12.7 mph23.0 mphScattered Clouds
3:35 AM48.2 °F42.8 °F82 %29.39 in10.0 miSouth (180°)10.4 mph23.0 mphPartly Cloudy
3:55 AM48.2 °F42.8 °F82 %29.38 in10.0 miSouth (170°)12.7 mph27.6 mphPartly Cloudy
4:15 AM48.2 °F42.8 °F82 %29.37 in10.0 miSouth (180°)8.1 mph24.2 mphScattered Clouds
4:35 AM48.2 °F42.8 °F82 %29.35 in10.0 miSouth (170°)10.4 mph19.6 mphMostly Cloudy
4:55 AM50.0 °F44.6 °F82 %29.34 in10.0 miSouth (170°)11.5 mph23.0 mphMostly Cloudy
5:15 AM50.0 °F44.6 °F82 %29.33 in10.0 miSouth (180°)12.7 mph24.2 mphOvercast
5:35 AM50.0 °F44.6 °F82 %29.31 in10.0 miSouth (170°)15.0 mph28.8 mphOvercast
6:15 AM50.0 °F44.6 °F82 %29.30 in10.0 miSouth (170°)11.5 mph21.9 mphRainLight Rain
6:35 AM50.0 °F44.6 °F82 %29.29 in8.0 miSouth (170°)9.2 mph21.9 mphRainLight Rain
6:55 AM50.0 °F44.6 °F82 %29.28 in8.0 miSouth (170°)11.5 mph20.7 mphRainLight Rain
7:15 AM48.2 °F46.4 °F93 %29.27 in4.0 miSouth (180°)10.4 mph21.9 mphRainLight Rain
7:35 AM50.0 °F48.2 °F94 %29.27 in5.0 miSouth (170°)6.9 mph21.9 mph0.01 inRainLight Rain
7:55 AM48.2 °F46.4 °F93 %29.27 in9.0 miSouth (170°)10.4 mph17.3 mph0.02 inRainLight Rain
8:15 AM50.0 °F46.4 °F87 %29.27 in9.0 miSouth (170°)8.1 mph20.7 mphRainLight Rain
8:35 AM50.0 °F46.4 °F87 %29.27 in8.0 miSouth (180°)11.5 mph20.7 mphRainLight Rain
8:55 AM50.0 °F46.4 °F87 %29.27 in8.0 miSouth (180°)11.5 mph20.7 mphRainLight Rain
9:15 AM50.0 °F46.4 °F87 %29.29 in10.0 miSouth (190°)12.7 mph19.6 mphOvercast
9:35 AM50.0 °F46.4 °F87 %29.30 in4.0 miSouth (190°)13.8 mph20.7 mphRainRain
9:55 AM50.0 °F48.2 °F94 %29.32 in6.0 miSSW (200°)10.4 mph16.1 mphRainLight Rain
10:15 AM50.0 °F48.2 °F94 %29.33 in10.0 miWSW (240°)5.8 mphOvercast
10:35 AM50.0 °F46.4 °F87 %29.35 in10.0 miSW (230°)8.1 mph17.3 mphMostly Cloudy
10:55 AM50.0 °F44.6 °F82 %29.36 in10.0 miSSW (210°)8.1 mph17.3 mphPartly Cloudy
11:15 AM50.0 °F42.8 °F76 %29.37 in10.0 miSW (220°)15.0 mph20.7 mphClear
11:35 AM51.8 °F41.0 °F67 %29.39 in10.0 miSW (230°)13.8 mph20.7 mphPartly Cloudy
11:55 AM51.8 °F41.0 °F67 %29.39 in10.0 miSW (230°)13.8 mph23.0 mphClear
12:15 PM53.6 °F41.0 °F62 %29.41 in10.0 miWSW (240°)11.5 mph23.0 mphClear
12:35 PM51.8 °F39.2 °F62 %29.42 in10.0 miSSW (210°)19.6 mph28.8 mphPartly Cloudy
12:55 PM53.6 °F39.2 °F58 %29.43 in10.0 miWSW (240°)11.5 mph24.2 mphClear
1:15 PM53.6 °F39.2 °F58 %29.45 in10.0 miSW (220°)17.3 mph23.0 mphPartly Cloudy
1:35 PM51.8 °F39.2 °F62 %29.47 in10.0 miSSW (210°)15.0 mph31.1 mphScattered Clouds
1:55 PM50.0 °F39.2 °F66 %29.49 in10.0 miSSW (210°)19.6 mph27.6 mphScattered Clouds
2:15 PM50.0 °F39.2 °F66 %29.50 in10.0 miSSW (200°)20.7 mph34.5 mphScattered Clouds
2:35 PM48.2 °F37.4 °F66 %29.51 in10.0 miSW (220°)19.6 mph35.7 mphPartly Cloudy
2:55 PM48.2 °F37.4 °F66 %29.52 in10.0 miSSW (210°)18.4 mph32.2 mphMostly Cloudy
3:15 PM46.4 °F37.4 °F71 %29.52 in10.0 miSSW (210°)23.0 mph33.4 mphPartly Cloudy
3:35 PM46.4 °F37.4 °F71 %29.54 in10.0 miSSW (200°)18.4 mph27.6 mphPartly Cloudy
3:55 PM46.4 °F37.4 °F71 %29.55 in10.0 miSW (220°)13.8 mph23.0 mphPartly Cloudy
4:15 PM46.4 °F35.6 °F66 %29.57 in10.0 miSSW (210°)16.1 mph21.9 mphClear
4:35 PM46.4 °F35.6 °F66 %29.58 in10.0 miSSW (210°)11.5 mph23.0 mphClear
4:55 PM46.4 °F35.6 °F66 %29.60 in10.0 miSSW (200°)11.5 mph24.2 mphClear
5:15 PM46.4 °F35.6 °F66 %29.61 in10.0 miSSW (210°)16.1 mph24.2 mphClear
5:35 PM46.4 °F35.6 °F66 %29.64 in10.0 miSSW (210°)18.4 mph26.5 mphClear
5:55 PM46.4 °F33.8 °F62 %29.65 in10.0 miSW (220°)16.1 mph25.3 mphClear
6:15 PM46.4 °F32.0 °F57 %29.67 in10.0 miSW (230°)16.1 mph25.3 mphClear
6:35 PM46.4 °F32.0 °F57 %29.70 in10.0 miSW (230°)13.8 mph23.0 mphClear
6:55 PM44.6 °F32.0 °F61 %29.71 in10.0 miWSW (240°)11.5 mph23.0 mphClear
7:15 PM44.6 °F32.0 °F61 %29.73 in10.0 miSSW (210°)13.8 mph20.7 mphClear
7:35 PM44.6 °F32.0 °F61 %29.74 in10.0 miSSW (210°)17.3 mph26.5 mphClear
7:55 PM42.8 °F32.0 °F66 %29.76 in10.0 miSSW (210°)11.5 mph28.8 mphClear
8:15 PM42.8 °F32.0 °F66 %29.77 in10.0 miSSW (210°)18.4 mph26.5 mphClear
8:35 PM41.0 °F32.0 °F70 %29.79 in10.0 miSSW (200°)15.0 mph20.7 mphClear
8:55 PM41.0 °F32.0 °F70 %29.81 in10.0 miSSW (200°)11.5 mph16.1 mphClear
9:15 PM41.0 °F28.4 °F61 %29.82 in10.0 miWSW (240°)11.5 mph21.9 mphClear
9:35 PM41.0 °F28.4 °F61 %29.84 in10.0 miSSW (200°)9.2 mph21.9 mphClear
9:55 PM41.0 °F28.4 °F61 %29.85 in10.0 miSW (220°)11.5 mphClear
10:15 PM41.0 °F28.4 °F61 %29.86 in10.0 miSSW (210°)9.2 mphPartly Cloudy
10:35 PM41.0 °F28.4 °F61 %29.88 in10.0 miSSW (200°)10.4 mph18.4 mphPartly Cloudy
10:55 PM39.2 °F32.0 °F75 %29.90 in10.0 miSSW (200°)11.5 mphPartly Cloudy
11:15 PM39.2 °F30.2 °F70 %29.91 in10.0 miSSW (210°)8.1 mphClear
11:35 PM39.2 °F32.0 °F75 %29.92 in10.0 miSSW (210°)9.2 mphClear
11:55 PM39.2 °F32.0 °F75 %29.93 in10.0 miSSW (200°)9.2 mphClear
Hourly data recorded from CZBB, located miles away from Delta, British Columbia







STORIES FROM OUR PARTNERS